Regional Weather Roundup
Issued by NWS State College, PA

Home | Current Version | Previous Version | Graphics & Text | Print | Product List | Glossary Off
Versions: 1 2 3 4 5 6 7 8 9 10 11 12 13 14 15 16 17 18 19 20 21 22 23 24 25 26 27 28 29 30 31 32 33 34 35 36 37 38 39 40 41 42 43 44 45 46 47 48 49 50

000
ASUS41 KCTP 252003
RWRCTP

REGIONAL WEATHER ROUNDUP
NATIONAL WEATHER SERVICE STATE COLLEGE PA
300 PM EST SUN JAN 25 2015

Note: "fair" indicates few or no clouds below 12,000 feet with no
significant weather and/or obstructions to visibility.

* = STATION THAT DOES NOT REPORT PRECIPITATION /E.G. RAIN...SNOW...ETC/
    THUNDER OR FOG.

PAZ002>004-007>009-013>016-020>023-029>032-252100-
WESTERN PENNSYLVANIA

CITY           SKY/WX    TMP DP  RH WIND       PRES   REMARKS
ERIE           PTSUNNY   20  12  71 NE14      29.89S WCI   7
MEADVILLE      CLOUDY    25  14  63 NE7       29.79S
FRANKLIN*      CLOUDY    27  19  74 CALM      29.79F
NEW CASTLE     LGT SNOW  30  25  82 CALM      29.81R
BEAVER COUNTY  LGT RAIN  32  28  86 N5        29.77S
BUTLER*        CLOUDY    30  27  86 NE8       29.79R
PITTSBURGH INT LGT SNOW  35  32  88 CALM      29.77R FOG
PITTSBURGH     CLOUDY    34  30  85 S3        29.76S FOG
INDIANA*       CLOUDY    32  32 100 VRB5      29.81R FOG
LATROBE        LGT SNOW  36  34  93 SW6       29.79F
WASHINGTON CO* CLOUDY    34  30  86 CALM      29.78S
$$

PAZ004>006-010>012-017>019-024>028-033>037-041-042-045-046-049>053-252100-
CENTRAL PENNSYLVANIA

CITY           SKY/WX    TMP DP  RH WIND       PRES   REMARKS
BRADFORD       MOSUNNY   25   6  44 N6        29.75S
DUBOIS         CLOUDY    29  23  78 CALM      29.76R
CLEARFIELD     CLOUDY    32  22  66 CALM      29.78R
JOHNSTOWN      CLOUDY    32  30  92 SW5       29.72S FOG
ALTOONA        CLOUDY    35  33  92 CALM      29.76S
STATE COLLEGE  CLOUDY    34  27  75 CALM      29.78S
WILLIAMSPORT   CLOUDY    37  13  37 N5        29.81S
SELINSGROVE    CLOUDY    38  26  62 NW3       29.81S
FT INDIANTOWN  CLOUDY    40  31  72 W8        29.80R
CAPITAL CITY   CLOUDY    40  31  70 W5        29.80S
HARRISBURG     CLOUDY    38  31  76 NW8       29.80
YORK           CLOUDY    40  31  70 CALM      29.79F
$$

PAZ038>040-043-044-047-048-054-055-060>062-067>071-252100-
EASTERN PENNSYLVANIA

CITY           SKY/WX    TMP DP  RH WIND       PRES   REMARKS
SCRANTON       SUNNY     33   9  36 N9        29.81R
MOUNT POCONO   MOSUNNY   29   9  43 NW12      29.73R
ALLENTOWN      CLOUDY    39  24  55 NW9       29.79S
QUAKERTOWN*    NOT AVBL
READING        CLOUDY    39  31  72 W7        29.81R
LANCASTER      CLOUDY    38  31  76 NW7       29.80S
COATESVILLE    CLOUDY    41  36  81 NW5       29.81R
POTTSTOWN      CLOUDY    39  30  70 W8        29.82R
BLUE BELL      PTSUNNY   43  32  65 NW8       29.80R
DOYLESTOWN     CLOUDY    38  30  73 NW8       29.80R
WILLOW GROVE   NOT AVBL
NORTH PHILA    PTSUNNY   44  29  55 W12       29.83R
PHILADELPHIA   PTSUNNY   46  30  53 W14       29.82R
$$


USA.gov is the U.S. government's official web portal to all federal, state and local government web resources and services.